Time,TemperatureF,DewpointF,PressureIn,WindDirection,WindDirectionDegrees,WindSpeedMPH,WindSpeedGustMPH,Humidity,HourlyPrecipIn,Conditions,Clouds,dailyrainin,SoftwareType,DateUTC
2013-09-11 00:08:00,70.5,68.0,30.05,ESE,117,0.0,1.0,91,0.00,,,0.00,weatherlink.com 1.10,2013-09-11 04:08:00,
2013-09-11 00:23:00,70.2,68.0,30.05,East,101,1.0,2.0,92,0.00,,,0.00,weatherlink.com 1.10,2013-09-11 04:23:00,
2013-09-11 00:38:00,69.9,68.0,30.05,ESE,113,0.0,3.0,92,0.00,,,0.00,weatherlink.com 1.10,2013-09-11 04:38:00,
2013-09-11 00:53:00,69.6,68.0,30.05,SSE,155,1.0,2.0,93,0.00,,,0.00,weatherlink.com 1.10,2013-09-11 04:53:00,
2013-09-11 01:08:00,69.4,67.0,30.05,SE,132,0.0,1.0,93,0.00,,,0.00,weatherlink.com 1.10,2013-09-11 05:08:00,
2013-09-11 01:23:00,69.4,67.0,30.04,NNE,22,0.0,2.0,93,0.00,,,0.00,weatherlink.com 1.10,2013-09-11 05:23:00,
2013-09-11 01:38:00,69.3,68.0,30.04,NNE,12,0.0,1.0,94,0.00,,,0.00,weatherlink.com 1.10,2013-09-11 05:38:00,
2013-09-11 01:53:00,69.3,68.0,30.04,NE,41,0.0,1.0,94,0.00,,,0.00,weatherlink.com 1.10,2013-09-11 05:53:00,
2013-09-11 02:08:00,69.4,68.0,30.04,SSW,213,0.0,1.0,94,0.00,,,0.00,weatherlink.com 1.10,2013-09-11 06:08:00,
2013-09-11 02:23:00,69.4,68.0,30.03,WSW,245,0.0,0.0,94,0.00,,,0.00,weatherlink.com 1.10,2013-09-11 06:23:00,
2013-09-11 02:38:00,69.5,68.0,30.03,SW,232,0.0,2.0,94,0.00,,,0.00,weatherlink.com 1.10,2013-09-11 06:38:00,
2013-09-11 02:53:00,69.5,68.0,30.03,West,276,0.0,2.0,94,0.00,,,0.00,weatherlink.com 1.10,2013-09-11 06:53:00,
2013-09-11 03:08:00,69.5,68.0,30.03,West,278,0.0,1.0,94,0.00,,,0.00,weatherlink.com 1.10,2013-09-11 07:08:00,
2013-09-11 03:23:00,69.5,68.0,30.03,NNE,12,0.0,1.0,95,0.00,,,0.00,weatherlink.com 1.10,2013-09-11 07:23:00,
2013-09-11 03:38:00,69.5,68.0,30.03,West,276,0.0,0.0,95,0.00,,,0.00,weatherlink.com 1.10,2013-09-11 07:38:00,
2013-09-11 03:53:00,69.3,68.0,30.03,WSW,241,0.0,0.0,95,0.00,,,0.00,weatherlink.com 1.10,2013-09-11 07:53:00,
2013-09-11 04:08:00,69.3,68.0,30.03,WSW,249,0.0,0.0,95,0.00,,,0.00,weatherlink.com 1.10,2013-09-11 08:08:00,
2013-09-11 04:23:00,69.4,68.0,30.03,WSW,253,0.0,1.0,95,0.00,,,0.00,weatherlink.com 1.10,2013-09-11 08:23:00,
2013-09-11 04:38:00,69.5,68.0,30.03,West,259,0.0,1.0,95,0.00,,,0.00,weatherlink.com 1.10,2013-09-11 08:38:00,
2013-09-11 04:53:00,69.4,68.0,30.03,WSW,250,0.0,0.0,95,0.00,,,0.00,weatherlink.com 1.10,2013-09-11 08:53:00,
2013-09-11 05:08:00,69.6,68.0,30.02,West,272,0.0,1.0,95,0.00,,,0.00,weatherlink.com 1.10,2013-09-11 09:08:00,
2013-09-11 05:23:00,69.5,68.0,30.02,West,271,0.0,1.0,95,0.00,,,0.00,weatherlink.com 1.10,2013-09-11 09:23:00,
2013-09-11 05:38:00,69.4,68.0,30.03,NNE,32,0.0,0.0,95,0.00,,,0.00,weatherlink.com 1.10,2013-09-11 09:38:00,
2013-09-11 05:53:00,69.0,68.0,30.03,NNE,32,0.0,0.0,95,0.00,,,0.00,weatherlink.com 1.10,2013-09-11 09:53:00,
2013-09-11 06:08:00,68.7,67.0,30.03,NNE,32,0.0,0.0,95,0.00,,,0.00,weatherlink.com 1.10,2013-09-11 10:08:00,
2013-09-11 06:23:00,69.0,68.0,30.03,NNE,32,0.0,1.0,96,0.00,,,0.00,weatherlink.com 1.10,2013-09-11 10:23:00,
2013-09-11 06:38:00,69.0,68.0,30.04,WSW,241,0.0,0.0,96,0.00,,,0.00,weatherlink.com 1.10,2013-09-11 10:38:00,
2013-09-11 06:53:00,69.0,68.0,30.04,WSW,241,0.0,0.0,96,0.00,,,0.00,weatherlink.com 1.10,2013-09-11 10:53:00,
2013-09-11 07:08:00,69.9,69.0,30.04,SW,228,0.0,1.0,96,0.00,,,0.00,weatherlink.com 1.10,2013-09-11 11:08:00,
2013-09-11 07:23:00,70.4,69.0,30.04,West,259,1.0,1.0,96,0.00,,,0.00,weatherlink.com 1.10,2013-09-11 11:23:00,
2013-09-11 07:38:00,71.1,70.0,30.04,WSW,246,0.0,3.0,96,0.00,,,0.00,weatherlink.com 1.10,2013-09-11 11:38:00,
2013-09-11 07:53:00,72.1,71.0,30.04,West,280,1.0,2.0,95,0.00,,,0.00,weatherlink.com 1.10,2013-09-11 11:53:00,
2013-09-11 08:08:00,73.4,72.0,30.04,WSW,252,0.0,3.0,94,0.00,,,0.00,weatherlink.com 1.10,2013-09-11 12:08:00,
2013-09-11 08:23:00,74.9,72.0,30.04,WNW,294,1.0,3.0,90,0.00,,,0.00,weatherlink.com 1.10,2013-09-11 12:23:00,
2013-09-11 08:38:00,76.3,73.0,30.04,ESE,111,0.0,4.0,88,0.00,,,0.00,weatherlink.com 1.10,2013-09-11 12:38:00,
2013-09-11 08:53:00,77.9,73.0,30.04,South,187,0.0,6.0,84,0.00,,,0.00,weatherlink.com 1.10,2013-09-11 12:53:00,
2013-09-11 09:08:00,79.0,74.0,30.04,WSW,248,0.0,5.0,83,0.00,,,0.00,weatherlink.com 1.10,2013-09-11 13:08:00,
2013-09-11 09:23:00,80.3,74.0,30.05,WSW,241,1.0,4.0,80,0.00,,,0.00,weatherlink.com 1.10,2013-09-11 13:23:00,
2013-09-11 09:38:00,81.4,75.0,30.04,SSW,210,1.0,5.0,80,0.00,,,0.00,weatherlink.com 1.10,2013-09-11 13:38:00,
2013-09-11 09:53:00,82.7,75.0,30.04,NNW,344,0.0,5.0,78,0.00,,,0.00,weatherlink.com 1.10,2013-09-11 13:53:00,
2013-09-11 10:09:00,84.1,75.0,30.04,SW,221,3.0,6.0,75,0.00,,,0.00,weatherlink.com 1.10,2013-09-11 14:09:00,
2013-09-11 10:24:00,85.1,76.0,30.03,WSW,237,3.0,6.0,73,0.00,,,0.00,weatherlink.com 1.10,2013-09-11 14:24:00,
2013-09-11 10:39:00,86.5,77.0,30.03,East,85,1.0,5.0,72,0.00,,,0.00,weatherlink.com 1.10,2013-09-11 14:39:00,
2013-09-11 10:54:00,87.6,77.0,30.03,WNW,300,3.0,5.0,70,0.00,,,0.00,weatherlink.com 1.10,2013-09-11 14:54:00,
2013-09-11 11:09:00,88.7,76.0,30.02,SW,223,2.0,5.0,67,0.00,,,0.00,weatherlink.com 1.10,2013-09-11 15:09:00,
2013-09-11 11:24:00,88.6,76.0,30.02,West,261,1.0,8.0,67,0.00,,,0.00,weatherlink.com 1.10,2013-09-11 15:24:00,
2013-09-11 11:39:00,89.5,77.0,30.02,WSW,241,2.0,6.0,66,0.00,,,0.00,weatherlink.com 1.10,2013-09-11 15:39:00,
2013-09-11 11:54:00,89.9,76.0,30.02,SW,223,4.0,7.0,64,0.00,,,0.00,weatherlink.com 1.10,2013-09-11 15:54:00,
2013-09-11 12:09:00,90.8,75.0,30.02,WNW,296,4.0,7.0,61,0.00,,,0.00,weatherlink.com 1.10,2013-09-11 16:09:00,
2013-09-11 12:24:00,91.4,75.0,30.01,WSW,244,6.0,11.0,58,0.00,,,0.00,weatherlink.com 1.10,2013-09-11 16:24:00,
2013-09-11 12:39:00,92.1,74.0,30.01,WNW,300,2.0,9.0,56,0.00,,,0.00,weatherlink.com 1.10,2013-09-11 16:39:00,
2013-09-11 12:54:00,93.5,74.0,30.00,South,176,1.0,7.0,53,0.00,,,0.00,weatherlink.com 1.10,2013-09-11 16:54:00,
2013-09-11 13:09:00,93.3,73.0,30.00,WSW,240,7.0,8.0,51,0.00,,,0.00,weatherlink.com 1.10,2013-09-11 17:09:00,
2013-09-11 13:24:00,94.3,73.0,29.99,NW,321,3.0,7.0,50,0.00,,,0.00,weatherlink.com 1.10,2013-09-11 17:24:00,
2013-09-11 13:39:00,94.8,73.0,29.98,West,279,2.0,9.0,49,0.00,,,0.00,weatherlink.com 1.10,2013-09-11 17:39:00,
2013-09-11 13:54:00,95.9,73.0,29.98,West,269,1.0,8.0,47,0.00,,,0.00,weatherlink.com 1.10,2013-09-11 17:54:00,
2013-09-11 14:09:00,96.1,73.0,29.97,East,99,2.0,9.0,47,0.00,,,0.00,weatherlink.com 1.10,2013-09-11 18:09:00,
2013-09-11 14:24:00,95.2,73.0,29.97,WNW,291,7.0,10.0,48,0.00,,,0.00,weatherlink.com 1.10,2013-09-11 18:24:00,
2013-09-11 14:39:00,95.7,72.0,29.96,WSW,246,7.0,8.0,47,0.00,,,0.00,weatherlink.com 1.10,2013-09-11 18:39:00,
2013-09-11 14:54:00,96.0,72.0,29.96,West,267,2.0,8.0,46,0.00,,,0.00,weatherlink.com 1.10,2013-09-11 18:54:00,
2013-09-11 15:09:00,96.6,72.0,29.96,WSW,252,2.0,8.0,45,0.00,,,0.00,weatherlink.com 1.10,2013-09-11 19:09:00,
2013-09-11 15:25:00,96.2,72.0,29.96,WSW,237,5.0,8.0,45,0.00,,,0.00,weatherlink.com 1.10,2013-09-11 19:25:00,
2013-09-11 15:40:00,97.0,72.0,29.95,WSW,238,2.0,7.0,44,0.00,,,0.00,weatherlink.com 1.10,2013-09-11 19:40:00,
2013-09-11 15:55:00,96.7,71.0,29.95,WSW,240,0.0,10.0,44,0.00,,,0.00,weatherlink.com 1.10,2013-09-11 19:55:00,
2013-09-11 16:10:00,96.2,72.0,29.94,SW,224,2.0,9.0,46,0.00,,,0.00,weatherlink.com 1.10,2013-09-11 20:10:00,
2013-09-11 16:25:00,96.0,72.0,29.94,ENE,78,2.0,5.0,46,0.00,,,0.00,weatherlink.com 1.10,2013-09-11 20:25:00,
2013-09-11 16:40:00,95.2,73.0,29.93,ESE,105,0.0,11.0,48,0.00,,,0.00,weatherlink.com 1.10,2013-09-11 20:40:00,
2013-09-11 16:55:00,94.9,72.0,29.93,NNW,336,2.0,7.0,47,0.00,,,0.00,weatherlink.com 1.10,2013-09-11 20:55:00,
2013-09-11 17:10:00,94.4,72.0,29.93,SW,236,4.0,7.0,48,0.00,,,0.00,weatherlink.com 1.10,2013-09-11 21:10:00,
2013-09-11 17:25:00,93.9,72.0,29.92,West,277,2.0,7.0,49,0.00,,,0.00,weatherlink.com 1.10,2013-09-11 21:25:00,
2013-09-11 17:40:00,93.6,73.0,29.92,WSW,248,2.0,4.0,51,0.00,,,0.00,weatherlink.com 1.10,2013-09-11 21:40:00,
2013-09-11 17:55:00,92.6,74.0,29.92,WSW,253,4.0,5.0,54,0.00,,,0.00,weatherlink.com 1.10,2013-09-11 21:55:00,
2013-09-11 18:10:00,91.2,74.0,29.92,NW,313,2.0,6.0,58,0.00,,,0.00,weatherlink.com 1.10,2013-09-11 22:10:00,
2013-09-11 18:25:00,89.9,75.0,29.92,SW,223,2.0,3.0,61,0.00,,,0.00,weatherlink.com 1.10,2013-09-11 22:25:00,
2013-09-11 18:40:00,88.9,75.0,29.92,WSW,245,5.0,6.0,64,0.00,,,0.00,weatherlink.com 1.10,2013-09-11 22:40:00,
2013-09-11 18:55:00,88.1,75.0,29.93,WNW,288,1.0,5.0,66,0.00,,,0.00,weatherlink.com 1.10,2013-09-11 22:55:00,
2013-09-11 19:10:00,87.5,76.0,29.94,WSW,251,0.0,3.0,68,0.00,,,0.00,weatherlink.com 1.10,2013-09-11 23:10:00,
2013-09-11 19:25:00,86.7,76.0,29.94,WNW,287,3.0,5.0,70,0.00,,,0.00,weatherlink.com 1.10,2013-09-11 23:25:00,
2013-09-11 19:40:00,85.8,76.0,29.95,SW,233,1.0,7.0,73,0.00,,,0.00,weatherlink.com 1.10,2013-09-11 23:40:00,
2013-09-11 19:55:00,85.3,77.0,29.95,WSW,253,5.0,6.0,75,0.00,,,0.00,weatherlink.com 1.10,2013-09-11 23:55:00,
2013-09-11 20:10:00,84.7,76.0,29.96,NE,35,1.0,5.0,76,0.00,,,0.00,weatherlink.com 1.10,2013-09-12 00:10:00,
2013-09-11 20:25:00,84.0,76.0,29.96,WSW,237,0.0,6.0,76,0.00,,,0.00,weatherlink.com 1.10,2013-09-12 00:25:00,
2013-09-11 20:40:00,83.7,76.0,29.96,WSW,253,1.0,6.0,77,0.00,,,0.00,weatherlink.com 1.10,2013-09-12 00:40:00,
2013-09-11 20:55:00,83.2,75.0,29.96,SW,222,0.0,6.0,77,0.00,,,0.00,weatherlink.com 1.10,2013-09-12 00:55:00,
2013-09-11 21:10:00,82.6,75.0,29.96,WSW,249,0.0,5.0,77,0.00,,,0.00,weatherlink.com 1.10,2013-09-12 01:10:00,
2013-09-11 21:25:00,82.0,74.0,29.96,WNW,284,0.0,5.0,77,0.00,,,0.00,weatherlink.com 1.10,2013-09-12 01:25:00,
2013-09-11 21:40:00,81.6,73.0,29.96,SSW,196,2.0,4.0,76,0.00,,,0.00,weatherlink.com 1.10,2013-09-12 01:40:00,
2013-09-11 21:55:00,81.2,73.0,29.96,West,263,4.0,6.0,76,0.00,,,0.00,weatherlink.com 1.10,2013-09-12 01:55:00,
2013-09-11 22:10:00,80.8,72.0,29.96,WNW,290,3.0,7.0,75,0.00,,,0.00,weatherlink.com 1.10,2013-09-12 02:10:00,
2013-09-11 22:25:00,80.7,72.0,29.97,SW,224,3.0,5.0,75,0.00,,,0.00,weatherlink.com 1.10,2013-09-12 02:25:00,
2013-09-11 22:40:00,80.5,72.0,29.98,WSW,247,4.0,7.0,75,0.00,,,0.00,weatherlink.com 1.10,2013-09-12 02:40:00,
2013-09-11 22:55:00,80.9,72.0,29.99,WNW,292,2.0,7.0,75,0.00,,,0.00,weatherlink.com 1.10,2013-09-12 02:55:00,
2013-09-11 23:10:00,81.1,71.0,29.98,WSW,245,1.0,6.0,71,0.00,,,0.00,weatherlink.com 1.10,2013-09-12 03:10:00,
2013-09-11 23:25:00,81.1,69.0,29.97,WNW,289,0.0,2.0,67,0.00,,,0.00,weatherlink.com 1.10,2013-09-12 03:25:00,
2013-09-11 23:40:00,80.4,69.0,29.95,West,267,0.0,1.0,68,0.00,,,0.00,weatherlink.com 1.10,2013-09-12 03:40:00,
2013-09-11 23:55:00,79.7,68.0,29.95,WSW,247,0.0,1.0,67,0.00,,,0.00,weatherlink.com 1.10,2013-09-12 03:55:00,